Home   Weather   Sheffield   Past weeks
Flag for United Kingdom

Past Weather in Sheffield, England, United Kingdom — Yesterday and Last 2 Weeks

Now
46 °F

Partly cloudy.


Feels Like: 42 °F
Forecast: 47 / 53 °F
Wind: 9 mph from Southwest

Location: Manchester Airport

Current Time: Nov 13, 2018 at 2:42:07 am

Latest Report: Nov 13, 2018 at 1:50 am


Visibility: N/A

Pressure: 29.74 "Hg

Humidity: 82%

Dew Point: 41 °F

Location of SheffieldLocation

Past Weather in Sheffield — Graph

°F

Sheffield Temperature Yesterday

Maximum temperature yesterday: 54 °F (at 11:50 am)
Minimum temperature yesterday: 46 °F (at 12:50 am)
Average temperature yesterday: 49 °F

High & Low Weather Summary for the Past Weeks

 TemperatureHumidityPressure
High57 °F (Nov 6, 11:50 am)100% (Oct 29, 12:20 am)30.27 "Hg (Oct 29, 12:20 am)
Low30 °F (Oct 29, 12:20 am)54% (Oct 31, 11:20 am)29.12 "Hg (Nov 10, 12:20 am)
Average47 °F82%29.63 "Hg
* Reported Oct 29 12:20 am — Nov 13 12:50 am, Sheffield. Weather by CustomWeather, © 2018

Note: Actual official high and low records may vary slightly from our data, if they occured in-between our weather recording intervals... More about our weather records

Advertising

Sheffield Weather History for the Previous 24 Hours

Scroll right to see more
 ConditionsComfort  
Time TempWeatherWind HumidityBarometerVisibility
12:50 am
Tue, Nov 13
46 °FPassing clouds.8 mph82%29.74 "HgN/A
12:20 am46 °FLight rain. Passing clouds.9 mph82%29.74 "HgN/A
11:50 pm
Mon, Nov 12
46 °FPassing clouds.9 mph82%29.71 "HgN/A
11:20 pm46 °FLight rain. Partly cloudy.8 mph82%29.71 "HgN/A
10:50 pm46 °FPartly cloudy.10 mph76%29.71 "HgN/A
10:20 pm46 °FPassing clouds.10 mph76%29.71 "HgN/A
9:50 pm46 °FCool.9 mph82%29.71 "HgN/A
9:20 pm48 °FLight rain. Passing clouds.12 mph76%29.68 "HgN/A
8:50 pm48 °FPassing clouds.9 mph71%29.71 "HgN/A
8:20 pm48 °FCool.10 mph76%29.71 "HgN/A
7:50 pm50 °FCool.8 mph71%29.71 "HgN/A
7:20 pm50 °FPassing clouds.10 mph71%29.68 "HgN/A
6:50 pm50 °FPassing clouds.9 mph76%29.68 "HgN/A
6:20 pm50 °FLight rain. Passing clouds.7 mph76%29.71 "HgN/A
5:50 pm50 °FPassing clouds.5 mph76%29.71 "HgN/A
5:20 pm48 °FPassing clouds.5 mph76%29.68 "HgN/A
4:50 pm48 °FPassing clouds.7 mph76%29.68 "HgN/A
4:20 pm50 °FCool.7 mph71%29.68 "HgN/A
3:50 pm50 °FScattered clouds.8 mph76%29.68 "HgN/A
3:20 pm50 °FCool.9 mph76%29.65 "HgN/A
2:50 pm52 °FCool.10 mph72%29.65 "HgN/A
2:20 pm52 °FScattered showers. Scattered clouds.7 mph77%29.65 "HgN/A
1:20 pm52 °FScattered clouds.6 mph82%29.65 "HgN/A
12:50 pm52 °FLight rain. Broken clouds.9 mph77%29.65 "Hg4 mi
12:20 pm54 °FScattered clouds.10 mph72%29.65 "HgN/A
11:50 am54 °FBroken clouds.10 mph72%29.65 "HgN/A
11:20 am52 °FScattered showers. Passing clouds.6 mph77%29.65 "HgN/A
10:50 am50 °FSprinkles. Passing clouds.7 mph82%29.68 "HgN/A
10:20 am50 °FPassing clouds.7 mph82%29.65 "HgN/A
9:50 am50 °FPassing clouds.8 mph76%29.65 "HgN/A
9:20 am50 °FCool.6 mph76%29.65 "HgN/A
8:50 am50 °FCool.7 mph76%29.65 "HgN/A
8:20 am48 °FCool.7 mph82%29.65 "HgN/A
7:50 am48 °FCool.8 mph82%29.62 "HgN/A
7:20 am48 °FCool.8 mph82%29.62 "HgN/A
6:50 am48 °FCool.7 mph82%29.62 "HgN/A
6:20 am48 °FCool.7 mph82%29.62 "HgN/A
5:50 am48 °FCool.6 mph82%29.62 "HgN/A
5:20 am48 °FCool.7 mph82%29.62 "HgN/A
4:50 am48 °FCool.6 mph82%29.62 "HgN/A
4:20 am46 °FCool.6 mph87%29.59 "HgN/A
3:50 am46 °FCool.6 mph82%29.59 "HgN/A
3:20 am46 °FCool.5 mph82%29.59 "HgN/A
2:50 am46 °FPassing clouds.6 mph82%29.59 "HgN/A
2:20 am46 °FCool.7 mph82%29.59 "HgN/A
Weather by CustomWeather, © 2018

See weather overview